STARLINK-32592, 62035

Orbit data source: Space-Track

STARLINK-32592, 62035 is a payload satellite owned by SpaceX/Seattle (US) in LEO that was launched on Thu, 21 Nov 2024 UTC via an FALCON 9 launch vehicle from the Air Force Eastern Test Range (AFETR). Payload-class satellites include a variety of spacecraft equipped with specific instruments for various scientific and technological missions. These include communications satellites like Starlink; space stations such as the ISS; scientific satellites like the Hubble; Earth observation satellites from companies like Planet Labs, Umbra, and HawkEye 360; GPS; miniature CubeSats for education and research; and military/defense satellites.

Loading next visibility...
Identifier
62035, 2024-216D
Orbit
LEO
Country
Flag of USUS
Related business
Manufacturer
SpaceX/Seattle
Mission
Operational Commercial Communications
Bus & Motor
STARLINK V2M, Unknown motor
Mass
730 kg wet, ~700 kg dry
Launch date (UTC)
2024-11-21 (1 year ago)
Launch vehicle
FALCON 9
Launch site
Air Force Eastern Test Range (AFETR)
Object type
Payload
Rocket body
Debris
Shape & HBR
Box + 2 Pan, 17.7 m
Radar Cross Section
33.884 m², Large (>1 m²)

Expand to show TLE details & history
Last TLE update: 1 day ago

TLE from 1 day ago
0 STARLINK-32592
1 62035U 24216D   26035.16560558  .00029229  00000-0  10670-2 0  9993
2 62035  42.9954  92.9944 0001193 306.2365  53.8376 15.27594655 68675
Epoch: 2026-02-04T03:58Z
TLE epoch observation values (Epoch: 2026-02-04T03:58:28.322Z)
Latitude
-0.00002°
Longitude
-100.95972°
Altitude
482.297 km
Speed
7.626 km/s
True Right ascension
06h 11m 58s
True Declination
0° 00' 00"
Sunlit
Object was in full shadow at epoch
Visualization orbit readout
Latitude
Unknown
Longitude
Unknown
Altitude
Unknown
Speed
Unknown
Apparent Right ascension
Unknown
Apparent Declination
Unknown
Sunlit
N/A
Visualization observer readout
Local Sidereal Time
07:51:39
Azimuth
Unknown
Elevation
Unknown
Doppler factor
Unknown
Orbital elements
Apogee altitude
485.77 km
Perigee altitude
484.132 km
Semi-major axis
6,863.088 km
Eccentricity
0.00012
Inclination
42.9954°
RAAN
92.9944°
Arg. of periapsis
306.2365°
True anomaly
53.84864°
Mean anomaly
53.8376°
Eccentric anomaly
53.84312°
Mean motion
3.81737 °/min
Orbital period
94.31 mins
BSTAR
0.001067
Loading maneuver chart data...
Computing Atmospheric mass density...
Loading historical data...
Loading historical data...
Loading historical data...
Loading historical data...
Loading historical data...
Loading historical data...
Loading historical data...

Documentation

Showing up to 5 results
|